Location: Wells
(51.2093°N, 2.6446°W)
Time: 05:24:23
(UTC+00:00)

Tiangong - Visible Passes

Search period start: 20 January 2026 00:00
Search period end: 30 January 2026 00:00
Orbit: 378 x 393 km, 41.5° (Epoch: 19 January)

Date Brightness Start Highest point End Pass type
(mag) Time Alt. Az. Time Alt. Az. Time Alt. Az.
20 Jan 0.8 06:25:41 10° S 06:26:59 12° SSE 06:28:17 10° SE visible
21 Jan 0.6 07:02:02 10° SW 07:03:55 15° S 07:05:49 10° SE visible
22 Jan 0.5 06:03:30 12° SSW 06:04:45 14° S 06:06:28 10° SE visible
23 Jan 0.5 06:39:47 10° SW 06:41:37 14° S 06:43:27 10° SSE visible
24 Jan 0.4 05:42:28 15° S 05:42:28 15° S 05:44:13 10° SE visible
24 Jan 0.6 07:17:34 10° SSW 07:18:24 11° SSW 07:19:15 10° S visible
25 Jan 0.4 06:17:57 11° SSW 06:19:08 13° S 06:20:40 10° SSE visible
26 Jan 0.8 05:21:11 11° SSE 05:21:11 11° SSE 05:21:36 10° SSE visible
27 Jan 0.6 05:56:37 11° SSW 05:56:37 11° SSW 05:57:12 10° S visible
